sat.trackr.live / text

‹ back to catalog

COSMO-SKYMED 4

NORAD 37216 · 2010-060A

PAYLOAD ACTIVE UNKNOWN

§ Identity

Operator
Country
IT
Launch date
2010-11-06
Launch site
AFWTR
Launch vehicle
Mass (kg)
RCS (m²)
4.40

Purposes: earth_obs

External: N2YO · Heavens-Above · Gunter

§ Orbital elements

Epoch: 2026-09-12T04:40:32.227680Z

Period
97.16 min
Inclination
97.8907°
Eccentricity
0.0001399
Mean motion
14.82149547 rev/d
Perigee alt
621.6 km
Apogee alt
623.5 km
Semi-major
7,000.7 km
B*
1.8249e-5
RAAN
77.5537°
Arg perigee
82.9920°
Mean anomaly
277.1452°
Rev number
85,745

§ Raw data

COSMO-SKYMED 41 37216U 10060A   26255.19481745  .00000093  00000+0  18249-4 0  99942 37216  97.8907  77.5537 0001399  82.9920 277.1452 14.82149547857459

JSON: /api/v1/satellites/37216 · /tle

For live sub-satellite position, see the globe view (requires WebGL).

§ Visibility from observer

Set your observer location to see the next 7 days of passes ≥ 10°. The values pass through the URL so the page stays shareable.

No JS? Fill the form by hand. The geolocation button needs JavaScript.

§ Radio — SatNOGS DB

ModeDescriptionDownlinkUplink
FM S-band telemetry 2.244 GHz
FM S-band telemetry 2.230 GHz

2 transmitters · refreshed weekly from db.satnogs.org